This demonstration page uses our WeatherBlox Daily Observations layout. Learn more.

Hourly Observations for November 25, 2018

Temp ( °F °C ) Dew Point ( °F °C ) Humidity (%) Winds ( mph kmh ) Pressure ( in mb ) Visibility ( mi km ) Precip ( " mm )
12:15 am 00:15 Windy with Snow Likely 32 0.2 32 0.2 100 100 NNE 20 31 29.88 1012 2 3.218688 0.01 0.254
12:35 am 00:35 Cloudy with Light Wintry Mix 32 0 32 0 100 100 N 25 41 29.88 1012 3 4.828032 0.01 0.254
12:55 am 00:55 Cloudy with Light Wintry Mix 32 -0.2 32 -0.2 100 100 NNE 26 43 29.88 1012 4 6.437376 0.01 0.254
1:15 am 01:15 Windy with Snow Likely 31 -0.6 31 -0.6 100 100 NNE 29 46 29.88 1012 2.5 4.02336 0 0
1:35 am 01:35 Windy with Snow Likely 30 -1 30 -1.1 99 99 N 29 46 29.88 1012 1.5 2.414016 0 0
1:55 am 01:55 Cloudy with Snow 29 -1.6 29 -1.7 99 99 N 29 46 29.88 1012 1 1.609344 0 0
2:15 am 02:15 Cloudy with Snow 28 -2.1 28 -2.2 99 99 N 28 44 29.88 1012 0.75 1.207008 0 0
2:35 am 02:35 Cloudy with Snow 28 -2.5 27 -2.6 99 99 N 31 50 29.91 1013 1 1.609344 0 0
2:55 am 02:55 Cloudy 27 -2.6 27 -2.7 99 99 N 30 48 29.94 1014 N/A 0 0
3:15 am 03:15 Cloudy 27 -2.8 27 -3 99 99 N 31 50 29.94 1014 N/A 0.01 0.254
3:35 am 03:35 Cloudy 26 -3.2 26 -3.5 98 98 N 29 46 29.94 1014 N/A 0.01 0.254
3:55 am 03:55 Cloudy 26 -3.3 26 -3.5 99 99 N 29 46 29.94 1014 N/A 0.01 0.254
4:15 am 04:15 Cloudy 26 -3.5 26 -3.6 99 99 N 31 50 29.97 1015 N/A 0 0
4:35 am 04:35 Cloudy 26 -3.6 25 -4 97 97 N 29 46 29.97 1015 N/A 0 0
4:55 am 04:55 Cloudy 25 -3.7 25 -4 98 98 N 30 48 30 1016 N/A 0 0
5:15 am 05:15 Cloudy 25 -3.7 25 -4 98 98 N 29 46 30.03 1017 N/A 0 0
5:35 am 05:35 Cloudy 25 -4.1 24 -4.5 97 97 N 28 44 30.03 1017 N/A 0 0
5:55 am 05:55 Cloudy 24 -4.5 23 -4.8 98 98 N 25 41 30.09 1019 N/A 0 0
6:15 am 06:15 Cloudy 24 -4.5 23 -5 96 96 N 29 46 30.09 1019 N/A 0 0
6:35 am 06:35 Cloudy 24 -4.6 23 -5.1 96 96 N 30 48 30.09 1019 N/A 0 0
6:55 am 06:55 Cloudy 24 -4.7 22 -5.3 96 96 N 31 50 30.09 1019 N/A 0 0
7:15 am 07:15 Cloudy 24 -4.7 22 -5.5 94 94 N 30 48 30.12 1020 N/A 0 0
7:35 am 07:35 Cloudy 24 -4.7 22 -5.3 96 96 N 28 44 30.12 1020 N/A 0 0
7:55 am 07:55 Cloudy 23 -4.8 22 -5.5 95 95 N 30 48 30.15 1021 N/A 0 0
8:15 am 08:15 Cloudy 23 -4.8 22 -5.5 95 95 N 25 41 30.15 1021 N/A 0 0
8:35 am 08:35 Cloudy 24 -4.6 22 -5.3 95 95 N 23 37 30.15 1021 N/A 0 0
8:55 am 08:55 Cloudy 24 -4.5 23 -5.1 96 96 N 23 37 30.18 1022 N/A 0 0
9:15 am 09:15 Cloudy 24 -4.2 23 -5 94 94 N 22 35 30.18 1022 N/A 0 0
9:35 am 09:35 Cloudy 25 -4.1 23 -5.1 93 93 N 22 35 30.21 1023 N/A 0 0
9:55 am 09:55 Cloudy 25 -4.1 23 -5.2 92 92 N 23 37 30.21 1023 N/A 0 0
10:15 am 10:15 Cloudy 25 -4.1 22 -5.3 91 91 N 31 50 30.21 1023 N/A 0 0
10:35 am 10:35 Cloudy 25 -4 23 -5.1 92 92 N 23 37 30.21 1023 N/A 0 0
10:55 am 10:55 Cloudy 25 -3.7 23 -5 91 91 N 28 44 30.24 1024 N/A 0 0
11:15 am 11:15 Cloudy 26 -3.5 23 -4.9 90 90 N 23 37 30.24 1024 N/A 0 0
11:35 am 11:35 Cloudy 26 -3.3 23 -4.8 90 90 N 24 39 30.24 1024 N/A 0 0
11:55 am 11:55 Cloudy 26 -3.3 23 -4.8 90 90 N 22 35 30.24 1024 N/A 0 0
12:15 pm 12:15 Cloudy 26 -3.3 23 -4.9 89 89 N 26 43 30.21 1023 N/A 0 0
12:35 pm 12:35 Cloudy with Mist and Fog 27 -3 23 -4.8 88 88 N 24 39 30.21 1023 3 4.828032 0 0
12:55 pm 12:55 Cloudy with Mist and Fog 27 -2.9 24 -4.7 88 88 N 21 33 30.21 1023 5 8.04672 0 0
1:15 pm 13:15 Cloudy with Mist and Fog 26 -3.1 23 -5.2 86 86 N 23 37 30.21 1023 4 6.437376 0 0
1:35 pm 13:35 Cloudy with Mist and Fog 26 -3.1 23 -5.2 86 86 N 24 39 30.24 1024 5 8.04672 0 0
1:55 pm 13:55 Cloudy 27 -3 23 -4.8 88 88 N 22 35 30.24 1024 10 16.09344 0 0
2:15 pm 14:15 Cloudy 27 -2.7 23 -4.9 85 85 NNW 24 39 30.24 1024 10 16.09344 0 0
2:35 pm 14:35 Cloudy 27 -2.8 23 -5.1 84 84 N 25 41 30.24 1024 7 11.265408 0 0
2:55 pm 14:55 Cloudy 27 -2.7 23 -5 84 84 N 20 31 30.24 1024 7 11.265408 0 0
3:15 pm 15:15 Cloudy 27 -2.6 23 -5 84 84 NNW 20 31 30.27 1025 10 16.09344 0 0
3:35 pm 15:35 Cloudy 27 -2.7 23 -5.1 84 84 N 22 35 30.27 1025 10 16.09344 0 0
3:55 pm 15:55 Cloudy 27 -2.6 23 -5.1 83 83 N 17 28 30.27 1025 10 16.09344 0 0
4:15 pm 16:15 Cloudy 27 -2.6 23 -5 84 84 NNW 18 30 30.27 1025 10 16.09344 0 0
4:35 pm 16:35 Cloudy 27 -2.6 23 -4.9 84 84 NNW 17 28 30.27 1025 10 16.09344 0 0
4:55 pm 16:55 Cloudy 27 -2.6 24 -4.7 86 86 NNW 18 30 30.27 1025 10 16.09344 0 0
5:15 pm 17:15 Cloudy 27 -2.7 23 -5.1 84 84 NNW 17 28 30.27 1025 10 16.09344 0 0
5:35 pm 17:35 Cloudy 27 -3 23 -5.2 85 85 NNW 21 33 30.27 1025 10 16.09344 0 0
5:55 pm 17:55 Cloudy 27 -3 22 -5.5 83 83 NNW 20 31 30.27 1025 10 16.09344 0 0
6:15 pm 18:15 Cloudy 27 -2.8 23 -5.2 84 84 N 17 28 30.27 1025 10 16.09344 0 0
6:35 pm 18:35 Cloudy 27 -2.7 23 -5.1 84 84 N 18 30 30.27 1025 10 16.09344 0 0
6:55 pm 18:55 Cloudy 27 -3 23 -5.1 86 86 N 17 28 30.27 1025 10 16.09344 0 0
7:15 pm 19:15 Cloudy 27 -2.9 24 -4.7 88 88 NNW 12 19 30.3 1026 10 16.09344 0 0
7:35 pm 19:35 Cloudy 27 -2.6 24 -4.3 88 88 NNW 13 20 30.3 1026 10 16.09344 0 0
7:55 pm 19:55 Cloudy 27 -2.6 24 -4.5 87 87 N 12 19 30.3 1026 10 16.09344 0 0
8:15 pm 20:15 Cloudy 28 -2.5 24 -4.5 86 86 N 16 26 30.3 1026 10 16.09344 0 0
8:35 pm 20:35 Cloudy 28 -2.5 24 -4.5 86 86 NNW 18 30 30.3 1026 10 16.09344 0 0
8:55 pm 20:55 Cloudy 27 -2.6 24 -4.4 88 88 N 16 26 30.3 1026 10 16.09344 0 0
9:15 pm 21:15 Cloudy 27 -2.6 24 -4.5 87 87 N 17 28 30.3 1026 10 16.09344 0 0
9:35 pm 21:35 Cloudy 28 -2.5 24 -4.5 86 86 N 15 24 30.3 1026 10 16.09344 0 0
9:55 pm 21:55 Cloudy 28 -2.5 24 -4.3 88 88 NNW 10 17 30.33 1027 10 16.09344 0 0
10:15 pm 22:15 Cloudy 28 -2.3 24 -4.2 87 87 NNW 14 22 30.33 1027 10 16.09344 0 0
10:35 pm 22:35 Cloudy 28 -2.2 25 -4.1 87 87 NNW 10 17 30.33 1027 10 16.09344 0 0
10:55 pm 22:55 Cloudy 28 -2.2 25 -4 88 88 NNW 9 15 30.33 1027 10 16.09344 0 0
11:15 pm 23:15 Cloudy 28 -2.2 25 -4 88 88 NNW 9 15 30.33 1027 10 16.09344 0 0
11:35 pm 23:35 Cloudy 28 -2.2 25 -4 88 88 NNW 13 20 30.33 1027 10 16.09344 0 0
11:55 pm 23:55 Cloudy 28 -2.5 25 -4.1 89 89 NNW 7 11 30.33 1027 10 16.09344 0 0

Powered by AerisWeather